TimeCDT,TemperatureF,Dew PointF,Humidity,Sea Level PressureIn,VisibilityMPH,Wind Direction,Wind SpeedMPH,Gust SpeedMPH,PrecipitationIn,Events,Conditions,WindDirDegrees,DateUTC
12:53 AM,48.0,27.0,44,30.04,10.0,Calm,Calm,-,N/A,,Clear,0,2013-03-21 05:53:00
1:53 AM,41.0,32.0,70,30.05,10.0,Calm,Calm,-,N/A,,Clear,0,2013-03-21 06:53:00
2:53 AM,41.0,34.0,76,30.03,10.0,Calm,Calm,-,N/A,,Clear,0,2013-03-21 07:53:00
3:53 AM,42.1,35.1,76,30.03,10.0,Calm,Calm,-,N/A,,Clear,0,2013-03-21 08:53:00
4:53 AM,45.0,30.9,58,30.03,10.0,Calm,Calm,-,N/A,,Clear,0,2013-03-21 09:53:00
5:53 AM,45.0,32.0,60,30.04,10.0,NNE,3.5,-,N/A,,Clear,20,2013-03-21 10:53:00
6:53 AM,43.0,32.0,65,30.05,10.0,Calm,Calm,-,N/A,,Clear,0,2013-03-21 11:53:00
7:53 AM,44.1,30.9,60,30.07,10.0,Calm,Calm,-,N/A,,Clear,0,2013-03-21 12:53:00
8:53 AM,46.0,27.0,47,30.07,10.0,NE,6.9,-,N/A,,Clear,40,2013-03-21 13:53:00
9:53 AM,48.9,23.0,36,30.07,10.0,ENE,8.1,-,N/A,,Clear,70,2013-03-21 14:53:00
10:53 AM,52.0,23.0,32,30.07,10.0,NE,3.5,-,N/A,,Clear,40,2013-03-21 15:53:00
11:53 AM,54.0,27.0,35,30.05,10.0,Variable,3.5,-,N/A,,Clear,0,2013-03-21 16:53:00
12:53 PM,57.9,27.0,31,30.01,10.0,Calm,Calm,-,N/A,,Clear,0,2013-03-21 17:53:00
1:53 PM,60.1,27.0,28,29.96,10.0,Calm,Calm,-,N/A,,Clear,0,2013-03-21 18:53:00
2:53 PM,62.1,28.9,29,29.94,10.0,Variable,3.5,-,N/A,,Mostly Cloudy,0,2013-03-21 19:53:00
3:53 PM,63.0,28.9,28,29.90,10.0,Variable,5.8,-,N/A,,Scattered Clouds,0,2013-03-21 20:53:00
4:53 PM,63.0,28.0,27,29.89,10.0,SSE,8.1,-,N/A,,Overcast,150,2013-03-21 21:53:00
5:53 PM,62.1,30.9,31,29.87,10.0,SE,3.5,-,N/A,,Mostly Cloudy,140,2013-03-21 22:53:00
6:53 PM,60.1,34.0,38,29.86,10.0,SSE,5.8,-,N/A,,Overcast,160,2013-03-21 23:53:00
7:53 PM,57.9,37.0,46,29.87,10.0,South,8.1,-,N/A,,Overcast,170,2013-03-22 00:53:00
8:53 PM,55.0,37.0,51,29.87,10.0,SSE,8.1,-,N/A,,Overcast,150,2013-03-22 01:53:00
9:53 PM,55.0,39.0,55,29.88,10.0,SSE,4.6,-,N/A,,Overcast,150,2013-03-22 02:53:00
10:53 PM,54.0,39.0,57,29.88,10.0,North,-9999.0,-,N/A,,Overcast,0,2013-03-22 03:53:00
11:53 PM,53.1,41.0,64,29.90,10.0,South,4.6,-,N/A,,Overcast,170,2013-03-22 04:53:00